TimeCST,TemperatureF,Dew PointF,Humidity,Sea Level PressureIn,VisibilityMPH,Wind Direction,Wind SpeedMPH,Gust SpeedMPH,PrecipitationIn,Events,Conditions,WindDirDegrees,DateUTC
12:15 AM,39.2,14.0,36,30.41,5.0,NNW,10.4,-,N/A,,Haze,330,2014-01-21 06:15:00
12:35 AM,38.8,14.0,36,30.41,5.0,NNW,8.1,-,N/A,,Haze,340,2014-01-21 06:35:00
12:55 AM,36.5,14.0,40,30.40,5.0,NNW,5.8,-,N/A,,Haze,330,2014-01-21 06:55:00
1:15 AM,35.6,14.0,41,30.41,5.0,Calm,Calm,-,N/A,,Haze,0,2014-01-21 07:15:00
1:35 AM,34.7,14.5,44,30.40,5.0,Calm,Calm,-,N/A,,Haze,0,2014-01-21 07:35:00
1:55 AM,33.1,14.4,46,30.40,5.0,North,4.6,-,N/A,,Haze,350,2014-01-21 07:55:00
2:15 AM,33.6,14.5,46,30.41,7.0,Calm,Calm,-,N/A,,Clear,0,2014-01-21 08:15:00
2:35 AM,32.7,14.4,47,30.42,7.0,North,4.6,-,N/A,,Clear,360,2014-01-21 08:35:00
2:55 AM,32.5,14.9,48,30.42,7.0,North,4.6,-,N/A,,Clear,10,2014-01-21 08:55:00
3:15 AM,32.2,16.2,52,30.42,7.0,NE,4.6,-,N/A,,Clear,50,2014-01-21 09:15:00
3:35 AM,31.3,17.4,57,30.43,10.0,North,3.5,-,N/A,,Clear,10,2014-01-21 09:35:00
3:55 AM,29.1,16.9,60,30.44,10.0,North,4.6,-,N/A,,Clear,360,2014-01-21 09:55:00
4:15 AM,30.4,17.8,60,30.44,10.0,NNW,3.5,-,N/A,,Clear,340,2014-01-21 10:15:00
4:35 AM,28.4,17.2,63,30.44,10.0,Calm,Calm,-,N/A,,Clear,0,2014-01-21 10:35:00
4:55 AM,28.2,17.2,63,30.44,10.0,Calm,Calm,-,N/A,,Clear,0,2014-01-21 10:55:00
5:15 AM,27.1,16.7,65,30.45,10.0,Calm,Calm,-,N/A,,Clear,0,2014-01-21 11:15:00
5:35 AM,27.5,16.9,64,30.45,10.0,NNE,4.6,-,N/A,,Clear,30,2014-01-21 11:35:00
5:55 AM,27.1,16.9,65,30.43,10.0,NNE,3.5,-,N/A,,Clear,20,2014-01-21 11:55:00
6:15 AM,23.9,15.1,69,30.43,10.0,Calm,Calm,-,N/A,,Clear,0,2014-01-21 12:15:00
6:35 AM,23.0,15.8,74,30.44,10.0,Calm,Calm,-,N/A,,Clear,0,2014-01-21 12:35:00
6:55 AM,23.7,15.3,70,30.44,10.0,Calm,Calm,-,N/A,,Clear,0,2014-01-21 12:55:00
7:15 AM,22.8,15.8,74,30.44,10.0,Calm,Calm,-,N/A,,Clear,0,2014-01-21 13:15:00
7:35 AM,20.3,13.5,75,30.44,10.0,Calm,Calm,-,N/A,,Clear,0,2014-01-21 13:35:00
7:55 AM,16.7,11.7,81,30.45,10.0,SSW,3.5,-,N/A,,Clear,210,2014-01-21 13:55:00
8:15 AM,19.0,14.0,81,30.43,10.0,SSW,3.5,-,N/A,,Clear,200,2014-01-21 14:15:00
8:35 AM,20.8,15.4,80,30.42,10.0,Calm,Calm,-,N/A,,Clear,0,2014-01-21 14:35:00
8:55 AM,23.4,16.2,74,30.42,10.0,Calm,Calm,-,N/A,,Clear,0,2014-01-21 14:55:00
9:15 AM,25.2,17.6,73,30.42,10.0,Calm,Calm,-,N/A,,Clear,0,2014-01-21 15:15:00
9:35 AM,28.0,16.2,61,30.42,10.0,East,3.5,-,N/A,,Clear,90,2014-01-21 15:35:00
9:55 AM,28.4,14.9,57,30.42,10.0,East,3.5,-,N/A,,Clear,100,2014-01-21 15:55:00
10:15 AM,29.1,14.5,55,30.40,10.0,East,6.9,-,N/A,,Clear,100,2014-01-21 16:15:00
10:35 AM,30.2,13.6,50,30.39,10.0,SE,5.8,-,N/A,,Clear,130,2014-01-21 16:35:00
10:55 AM,31.8,13.8,47,30.39,10.0,SE,5.8,-,N/A,,Clear,140,2014-01-21 16:55:00
11:15 AM,33.6,14.0,45,30.36,10.0,SSE,6.9,-,N/A,,Clear,160,2014-01-21 17:15:00
11:35 AM,36.9,15.6,42,30.34,10.0,South,8.1,-,N/A,,Clear,190,2014-01-21 17:35:00
11:55 AM,39.9,17.2,40,30.32,10.0,South,8.1,-,N/A,,Clear,190,2014-01-21 17:55:00
12:15 PM,41.9,17.2,37,30.28,10.0,South,9.2,-,N/A,,Clear,190,2014-01-21 18:15:00
12:35 PM,45.7,17.4,32,30.26,10.0,SSW,12.7,19.6,N/A,,Clear,210,2014-01-21 18:35:00
12:55 PM,48.0,17.6,30,30.23,10.0,SSW,15.0,-,N/A,,Clear,210,2014-01-21 18:55:00
1:15 PM,50.5,17.6,27,30.20,10.0,SSW,16.1,19.6,N/A,,Clear,210,2014-01-21 19:15:00
1:35 PM,53.1,17.4,25,30.17,10.0,SSW,13.8,18.4,N/A,,Clear,200,2014-01-21 19:35:00
1:55 PM,56.8,16.9,21,30.14,10.0,SSW,15.0,18.4,N/A,,Clear,200,2014-01-21 19:55:00
2:15 PM,61.9,15.1,16,30.12,10.0,WSW,17.3,-,N/A,,Clear,240,2014-01-21 20:15:00
2:35 PM,63.1,14.9,15,30.11,10.0,WSW,17.3,21.9,N/A,,Clear,240,2014-01-21 20:35:00
2:55 PM,63.5,14.7,15,30.10,10.0,WSW,13.8,23.0,N/A,,Clear,240,2014-01-21 20:55:00
3:15 PM,64.4,14.0,14,30.09,10.0,WSW,16.1,-,N/A,,Clear,250,2014-01-21 21:15:00
3:35 PM,65.5,14.0,14,30.08,10.0,West,16.1,25.3,N/A,,Clear,260,2014-01-21 21:35:00
3:55 PM,66.2,13.8,13,30.07,10.0,WSW,15.0,21.9,N/A,,Clear,240,2014-01-21 21:55:00
4:15 PM,66.6,12.6,12,30.06,10.0,West,12.7,-,N/A,,Clear,260,2014-01-21 22:15:00
4:35 PM,66.6,12.0,12,30.06,10.0,West,11.5,16.1,N/A,,Clear,260,2014-01-21 22:35:00
4:55 PM,66.2,11.8,12,30.05,10.0,WSW,8.1,-,N/A,,Clear,250,2014-01-21 22:55:00
5:15 PM,64.4,12.7,13,30.05,10.0,SSW,10.4,-,N/A,,Clear,200,2014-01-21 23:15:00
5:35 PM,57.9,16.7,20,30.05,10.0,South,9.2,-,N/A,,Clear,180,2014-01-21 23:35:00
5:55 PM,55.2,17.4,23,30.05,10.0,South,11.5,-,N/A,,Clear,180,2014-01-21 23:55:00
6:15 PM,52.3,17.4,25,30.05,10.0,South,11.5,-,N/A,,Clear,180,2014-01-22 00:15:00
6:35 PM,50.4,17.6,27,30.05,10.0,South,13.8,-,N/A,,Clear,180,2014-01-22 00:35:00
6:55 PM,49.5,18.0,29,30.06,10.0,South,13.8,-,N/A,,Clear,180,2014-01-22 00:55:00
7:15 PM,47.5,17.6,30,30.07,10.0,SW,3.5,-,N/A,,Clear,230,2014-01-22 01:15:00
7:35 PM,45.7,17.8,33,30.07,10.0,SW,9.2,-,N/A,,Clear,220,2014-01-22 01:35:00
7:55 PM,43.7,17.6,35,30.07,10.0,SW,6.9,-,N/A,,Clear,230,2014-01-22 01:55:00
8:15 PM,41.9,17.6,38,30.07,10.0,SW,8.1,-,N/A,,Clear,230,2014-01-22 02:15:00
8:35 PM,41.2,17.4,38,30.07,10.0,SW,3.5,-,N/A,,Clear,230,2014-01-22 02:35:00
8:55 PM,41.0,17.4,39,30.07,10.0,Calm,Calm,-,N/A,,Clear,0,2014-01-22 02:55:00
9:15 PM,41.7,17.8,38,30.07,10.0,Calm,Calm,-,N/A,,Clear,0,2014-01-22 03:15:00
9:35 PM,39.6,17.2,41,30.08,10.0,Calm,Calm,-,N/A,,Clear,0,2014-01-22 03:35:00
9:55 PM,34.7,16.9,48,30.09,10.0,Calm,Calm,-,N/A,,Clear,0,2014-01-22 03:55:00
10:15 PM,34.9,17.6,49,30.09,10.0,Calm,Calm,-,N/A,,Clear,0,2014-01-22 04:15:00
10:35 PM,34.9,17.6,49,30.09,10.0,SSW,3.5,-,N/A,,Clear,200,2014-01-22 04:35:00
10:55 PM,32.0,17.4,55,30.09,10.0,ENE,3.5,-,N/A,,Clear,60,2014-01-22 04:55:00
11:15 PM,34.7,17.8,50,30.10,10.0,Calm,Calm,-,N/A,,Clear,0,2014-01-22 05:15:00
11:35 PM,31.8,17.4,55,30.10,10.0,Calm,Calm,-,N/A,,Clear,0,2014-01-22 05:35:00
11:55 PM,27.0,15.3,61,30.10,10.0,Calm,Calm,-,N/A,,Clear,0,2014-01-22 05:55:00